Terminal Aerodrome Forecast
Issued by NWS San Angelo, TX

Home | Current Version | Previous Version | Text Only | Print | Product List | Glossary On
Versions: 1 2 3 4 5 6 7 8 9 10 11 12 13 14 15 16
000
FTUS44 KSJT 052322
TAFABI
TAF
KABI 052322Z 0600/0624 VRB06KT P6SM FEW250
     FM061500 17012G17KT P6SM FEW150=

USA.gov is the U.S. government's official web portal to all federal, state and local government web resources and services.